Date,TemperatureHighF,TemperatureAvgF,TemperatureLowF,DewpointHighF,DewpointAvgF,DewpointLowF,HumidityHigh,HumidityAvg,HumidityLow,PressureMaxIn,PressureMinIn,WindSpeedMaxMPH,WindSpeedAvgMPH,GustSpeedMaxMPH,PrecipitationSumIn
2013-4-1,58,50,46,48,46,45,100,88,65,0.00,40.00,18,12,31,0.00
2013-4-2,58,50,45,46,44,43,100,83,59,0.00,40.00,13,11,27,0.00
2013-4-3,62,53,43,46,44,42,99,73,49,0.00,40.00,10,6,19,0.00
2013-4-4,53,49,45,49,46,43,100,91,73,0.00,40.00,14,6,29,0.35
2013-4-5,50,44,41,50,44,41,100,100,100,0.00,40.00,17,11,29,0.53
2013-4-6,44,40,35,44,40,35,100,100,97,0.00,40.00,16,9,30,0.72
2013-4-7,41,36,32,41,36,32,100,100,100,0.00,40.00,21,11,42,0.68
2013-4-8,45,37,32,39,35,32,100,94,76,0.00,40.00,15,11,26,0.14
2013-4-9,55,43,33,41,36,33,100,79,49,0.00,40.00,10,7,20,0.00
2013-4-10,48,45,37,48,41,32,100,86,60,0.00,40.00,17,12,33,0.15
2013-4-11,47,40,35,38,35,32,97,86,71,0.00,40.00,19,11,32,0.01
2013-4-12,50,40,33,38,35,31,100,85,59,0.00,40.00,17,8,32,0.08
2013-4-13,40,34,28,38,33,28,100,96,81,0.00,40.00,17,12,32,0.18
2013-4-14,45,36,31,36,33,31,100,88,62,0.00,40.00,12,8,21,0.01
2013-4-15,43,36,31,35,33,30,100,88,70,0.00,40.00,10,5,18,0.00
2013-4-16,47,40,33,35,32,29,100,77,49,0.00,40.00,7,4,13,0.00
2013-4-17,52,41,32,37,30,22,94,67,42,0.00,40.00,12,6,21,0.00
2013-4-18,51,42,37,44,38,35,100,87,63,0.00,40.00,15,10,25,0.00
2013-4-19,49,44,42,48,44,42,100,98,90,0.00,40.00,17,13,32,0.16
2013-4-20,50,43,39,42,40,38,100,88,64,0.00,40.00,14,11,25,0.09
2013-4-21,49,42,38,41,39,36,100,90,71,0.00,40.00,18,10,29,0.03
2013-4-22,55,44,34,38,28,20,100,60,29,0.00,40.00,8,5,21,0.03
2013-4-23,62,48,35,31,24,19,59,41,22,0.00,40.00,8,4,15,0.00
2013-4-24,66,54,41,34,27,17,50,36,24,0.00,40.00,9,5,15,0.00
2013-4-25,70,59,50,41,35,28,63,41,28,0.00,40.00,14,8,23,0.00
2013-4-26,77,62,51,42,34,27,67,40,16,0.00,40.00,11,8,20,0.00
2013-4-27,66,57,49,41,33,28,72,43,25,0.00,40.00,14,11,29,0.00
2013-4-28,58,48,43,44,41,39,100,79,51,0.00,40.00,14,11,29,0.00
2013-4-29,47,42,38,42,38,30,100,88,54,0.00,40.00,21,13,39,0.23
2013-4-30,50,42,33,31,29,28,82,63,44,0.00,40.00,13,8,22,0.01